Back to catalog

FENGYUN 1C DEB

AliveLEO
NORAD 30492·DEBRIS·🇨🇳 China

Launched May 10, 1999 from Taiyuan Satellite Launch Center

Loading…

Next Passes (next 24 hours)

TLE

FreshSource: Space-Track

Epoch: Sep 14, 2026, 08:51 UTC

1 30492U 99025AHE 26257.36941715  .00009912  00000-0  19651-2 0  9996
2 30492 102.3240  49.6247 0087627  51.2015 309.6954 14.60165007  9025

Track FENGYUN 1C DEB in real time with AllMySat

Download on the App Store